Location: Lecco
(45.8566°N, 9.3977°E)
Time: 11:04:18
(UTC+02:00)

ISS - Pass Details

Date: 28 April 2019
Orbit: 407 x 410 km, 51.6° (Epoch: 23 May)

Event Time Altitude Azimuth Distance (km) Brightness Sun altitude
Exits shadow 05:22:01 - 185° (S) 2,184 -0.5 -9.1°
Reaches altitude 10° 05:24:46 10° 155° (SSE) 1,471 -1.0 -8.7°
Maximum altitude 05:26:01 12° 132° (SE) 1,372 -0.9 -8.5°
Drops below altitude 10° 05:27:16 10° 110° (ESE) 1,476 -0.4 -8.3°
Sets 05:30:28 0° 76° (ENE) 2,344 1.8 -7.9°
